Weather History for KRKS - December, 2012

Change the Weather History Date:

Friday, December 14, 2012

  Actual Average Record
Temperature  
Mean Temperature 31 °F 21 °F  
Max Temperature 35 °F 29 °F 52 °F (1977)
Min Temperature 26 °F 12 °F -10 °F (2008)
Degree Days  
Heating Degree Days 34 44  
Month to date heating degree days 497 603  
Since 1 July heating degree days 2073 2596  
Cooling Degree Days 0 0  
Month to date cooling degree days 0 0  
Year to date cooling degree days 541 286  
Moisture  
Dew Point 21 °F    
Average Humidity 68    
Maximum Humidity 92    
Minimum Humidity 43    
Precipitation  
Precipitation 0.01 in 0.02 in 0.11 in (1975)
Month to date precipitation 0.04 0.24  
Year to date precipitation 2.97 8.30  
Sea Level Pressure  
Sea Level Pressure 29.69 in    
Wind  
Wind Speed 7 mph (SSW)    
Max Wind Speed 14 mph    
Max Gust Speed 17 mph    
Visibility 7 miles    
Events Snow    
T = Trace of Precipitation, MM = Missing Value Source: NWS Daily Summary

Daily Weather History Graph

Daily Weather History Graph

Search for Another Location

Airport or City:

Trip Planner

Search our weather history database for the weather conditions in past years. The results will help you decide how hot, cold, wet, or windy it might be!

Date:

Astronomy

Dec. 14, 2012 Rise Set
Actual Time 7:35 AM MST 4:46 PM MST
Civil Twilight 7:04 AM MST 5:18 PM MST
Nautical Twilight 6:29 AM MST 5:53 PM MST
Astronomical Twilight 5:55 AM MST 6:26 PM MST
Moon 8:42 AM MST (12/14) 6:44 PM MST (12/14)
Length of Visible Light 10h 14m
Length of Day
9h 11m
Waxing Crescent, 3% of the Moon is Illuminated
Dec 14
Waxing Crescent
Dec 19
First Quarter
Dec 28
Full
Jan 4
Last Quarter
Jan 11
New

Hourly Weather History & Observations

Time (MST) Temp. Windchill Dew Point Humidity Pressure Visibility Wind Dir Wind Speed Gust Speed Precip Events Conditions
12:54 AM 33.1 °F 30.0 °F 15.1 °F 48% 29.81 in 10.0 mi South 3.5 mph - N/A   Mostly Cloudy
1:54 AM 33.1 °F 30.0 °F 14.0 °F 46% 29.78 in 10.0 mi SE 3.5 mph - N/A   Clear
2:54 AM 28.0 °F 21.7 °F 12.9 °F 53% 29.79 in 10.0 mi SSE 5.8 mph - N/A   Clear
3:54 AM 28.9 °F 21.9 °F 14.0 °F 54% 29.77 in 10.0 mi SSE 6.9 mph - N/A   Clear
4:54 AM 28.9 °F 21.9 °F 15.1 °F 56% 29.76 in 10.0 mi SE 6.9 mph - N/A   Mostly Cloudy
5:54 AM 28.0 °F 21.7 °F 14.0 °F 56% 29.75 in 10.0 mi ESE 5.8 mph - N/A   Overcast
6:54 AM 27.0 °F 18.7 °F 14.0 °F 58% 29.75 in 10.0 mi SE 8.1 mph - N/A   Clear
7:54 AM 27.0 °F 18.0 °F 12.9 °F 56% 29.71 in 10.0 mi SE 9.2 mph - N/A   Clear
8:54 AM 28.9 °F 20.4 °F 14.0 °F 54% 29.71 in 10.0 mi SSE 9.2 mph - N/A   Clear
9:54 AM 33.1 °F 26.9 °F 16.0 °F 50% 29.65 in 10.0 mi SE 6.9 mph - N/A   Overcast
10:54 AM 30.0 °F 25.2 °F 17.1 °F 59% 29.63 in 10.0 mi NE 4.6 mph - N/A   Clear
11:54 AM 33.1 °F 28.7 °F 18.0 °F 54% 29.59 in 10.0 mi NNE 4.6 mph - N/A   Clear
12:54 PM 35.1 °F 32.2 °F 19.0 °F 52% 29.57 in 10.0 mi North 3.5 mph - N/A   Scattered Clouds
1:54 PM 35.1 °F - 19.0 °F 52% 29.56 in 10.0 mi Calm Calm - N/A   Scattered Clouds
2:54 PM 34.0 °F - 19.9 °F 56% 29.60 in 10.0 mi Calm Calm - N/A   Overcast
3:54 PM 33.1 °F 30.0 °F 21.0 °F 61% 29.61 in 10.0 mi West 3.5 mph - N/A   Overcast
4:54 PM 30.0 °F 24.1 °F 21.0 °F 69% 29.62 in 10.0 mi West 5.8 mph - N/A   Overcast
5:54 PM 28.0 °F 17.5 °F 24.1 °F 85% 29.65 in 10.0 mi West 12.7 mph - N/A   Overcast
6:54 PM 28.9 °F 19.8 °F 26.1 °F 89% 29.68 in 10.0 mi WSW 10.4 mph - N/A   Overcast
7:20 PM 28.4 °F 19.7 °F 26.6 °F 93% 29.63 in 1.8 mi WSW 9.2 mph - 0.00 in Snow Light Snow
7:47 PM 26.6 °F 18.2 °F 26.6 °F 100% 29.64 in 2.5 mi West 8.1 mph - 0.00 in Snow Light Snow
7:50 PM 26.6 °F 18.2 °F 24.8 °F 93% 29.64 in 3.0 mi West 8.1 mph - 0.00 in Snow Light Snow
7:54 PM 27.0 °F 18.7 °F 25.0 °F 92% 29.71 in 4.0 mi West 8.1 mph - 0.00 in Snow Light Snow
8:54 PM 27.0 °F 17.3 °F 25.0 °F 92% 29.72 in 8.0 mi SW 10.4 mph - 0.00 in   Overcast
9:44 PM 26.6 °F 16.8 °F 24.8 °F 93% 29.67 in 3.0 mi SW 10.4 mph - 0.00 in Snow Light Snow
9:54 PM 27.0 °F 16.7 °F 25.0 °F 92% 29.72 in 2.0 mi SW 11.5 mph - 0.00 in Snow Light Snow
10:02 PM 26.6 °F 16.8 °F 24.8 °F 93% 29.67 in 1.2 mi SW 10.4 mph - 0.00 in Snow Light Snow
10:33 PM 26.6 °F 18.2 °F 24.8 °F 93% 29.68 in 0.8 mi SSW 8.1 mph - 0.00 in Snow Light Snow
10:42 PM 26.6 °F 18.2 °F 24.8 °F 93% 29.68 in 1.0 mi SW 8.1 mph - 0.00 in Snow Light Snow
10:54 PM 27.0 °F 18.0 °F 25.0 °F 92% 29.74 in 1.5 mi SW 9.2 mph - 0.00 in Snow Light Snow
11:03 PM 26.6 °F 16.2 °F 24.8 °F 93% 29.68 in 2.0 mi SW 11.5 mph - 0.00 in Snow Light Snow
11:32 PM 26.6 °F 17.5 °F 24.8 °F 93% 29.69 in 3.0 mi SW 9.2 mph - 0.01 in Snow Light Snow
11:43 PM 26.6 °F 17.5 °F 24.8 °F 93% 29.69 in 3.0 mi SW 9.2 mph - 0.01 in Snow Light Snow
11:50 PM 26.6 °F 17.5 °F 24.8 °F 93% 29.70 in 4.0 mi SW 9.2 mph - 0.01 in Snow Light Snow
11:54 PM 26.1 °F 16.8 °F 24.1 °F 92% 29.74 in 4.0 mi SW 9.2 mph - 0.01 in Snow Light Snow